Regional Weather Roundup
Issued by NWS Memphis, TN

Home | Current Version | Previous Version | Text Only | Print | Product List | Glossary On
Versions: 1 2 3 4 5 6 7 8 9 10 11 12 13 14 15 16 17 18 19 20 21 22 23 24 25 26 27 28 29 30 31 32 33 34 35 36 37 38 39 40 41 42 43 44 45 46 47 48 49 50
000
ASUS44 KMEG 251410
RWRMEG
MEMPHIS CWA HOURLY WEATHER ROUNDUP
NATIONAL WEATHER SERVICE MEMPHIS TN
900 AM CDT MON MAY 25 2015

...WEST TENNESSEE...

CITY           SKY/WX    TMP DP  RH WIND       PRES   REMARKS
MEMPHIS INTL   CLOUDY    72  68  88 S7        30.08R
NWS MEMPHIS      N/A     71 N/A N/A MISG        N/A
JACKSON        CLOUDY    70  66  87 SE5       30.11R
LEXINGTON      CLOUDY    66  66 100 SE5       30.13R
DYERSBURG      CLOUDY    70  55  60 CALM      30.09R
PARIS          CLOUDY    66  66 100 SE8       30.12R


...EASTERN ARKANSAS...

CITY           SKY/WX    TMP DP  RH WIND       PRES   REMARKS
JONESBORO      CLOUDY    71  69  93 S8        30.05S
WEST MEMPHIS   CLOUDY    71  70  96 S10       30.06R
BATESVILLE     PTSUNNY   73  70  88 SE5       30.03R
NEWPORT        CLOUDY    73  70  91 S13       30.05R
WALNUT RIDGE   PTSUNNY   72  68  88 S13       30.05R
BLYTHEVILLE    CLOUDY    72  32  23 SW9       30.08
SEARCY         CLOUDY    73  69  87 S10       30.04S
STUTTGART      CLOUDY    73  66  78 MISG      30.05R
PINE BLUFF     CLOUDY    72  68  87 S8        30.04R
MONTICELLO     CLOUDY    72  69  90 S7        30.05R


...NORTH MISSISSIPPI...

CITY           SKY/WX    TMP DP  RH WIND       PRES   REMARKS
TUPELO         TSTM      68  65  90 S5        30.11R FOG
OXFORD         CLOUDY    66  66 100 S7        30.10F
OLIVE BRANCH   PTSUNNY   68  66  94 S8        30.09
TUNICA         CLOUDY    70  68  94 S8        30.08R
CLARKSDALE     CLOUDY    72  72 100 CALM      30.08R
CORINTH        LGT RAIN  68  66  94 CALM      30.12R
GREENWOOD        N/A    N/A N/A N/A MISG      30.07F
COLUMBUS       CLOUDY    72  72 100 VRB5      30.12R
STARKVILLE     CLOUDY    68  66  94 CALM      30.12R
GOLDEN TRIANGL CLOUDY    73  70  88 S14       30.11R


...SOUTHEAST MISSOURI...

CITY           SKY/WX    TMP DP  RH WIND       PRES   REMARKS
WEST PLAINS    CLOUDY    71  66  84 SW9       30.03S
POPLAR BLUFF   CLOUDY    71  67  87 S12       30.04R
CAPE GIRARDEAU CLOUDY    70  66  87 S12       30.06R


...NORTHWEST ALABAMA...

CITY           SKY/WX    TMP DP  RH WIND       PRES   REMARKS
MUSCLE SHOALS  CLOUDY    69  65  86 E6        30.16S


...MIDDLE TENNESSEE...

CITY           SKY/WX    TMP DP  RH WIND       PRES   REMARKS
NASHVILLE      LGT RAIN  66  64  94 S8        30.20S
CLARKSVILLE    CLOUDY    68  67  96 SE7       30.15R
COLUMBIA       CLOUDY    66  66 100 SE5       30.17S


...WESTERN KENTUCKY...

CITY           SKY/WX    TMP DP  RH WIND       PRES   REMARKS
PADUCAH        CLOUDY    70  66  87 S8        30.08R
FORT CAMPBELL  CLOUDY    68  68 100 SE7       30.14R


...CENTRAL ARKANSAS...

CITY           SKY/WX    TMP DP  RH WIND       PRES   REMARKS
LITTLE ROCK    CLOUDY    73  68  84 S7        30.03R


SKY/WX REPORTED AS FAIR MEANS FEW OR NO CLOUDS BELOW
12 THOUSAND FEET.




USA.gov is the U.S. government's official web portal to all federal, state and local government web resources and services.